Location: Unspecified
(0.0000°N, 0.0000°E)
Time: 04:34:52
(UTC+00:00)

deb NOAA 5 - Pass Details

Date: 14 February 2026
Orbit: 749 x 1047 km, 102.9° (Epoch: 11 March)

Event Time Altitude Azimuth Distance (km) Brightness Sun altitude
Rises 04:44:04 0° 122° (ESE) 3,381 ? -21.9°
Reaches altitude 10° 04:48:09 10° 91° (E) 2,516 ? -20.9°
Maximum altitude 04:50:03 12° 70° (ENE) 2,423 ? -20.5°
Drops below altitude 10° 04:51:59 10° 50° (NE) 2,584 ? -20.0°
Sets 04:56:18 0° 20° (NNE) 3,603 ? -18.9°
